Starlink 32765

operational
NORAD ID: 62747 Int'l Des: 2025-014 Owner: SPXS Country: US Constellation: starlink
LEOCIRCULAR

Starlink 32765について

説明を読み込み中...

リアルタイム位置

3D地球を読み込み中...

次回通過

高度履歴

Altitude vs Time

uPlot chart will show altitude changes over time

軌道要素

1 62747U 25014N 25351.15345055 .00013166 00000-0 48676-3 0 9993
2 62747 43.0025 260.5895 0001450 272.8517 87.2169 15.27602926 50636
Epoch: Dec 17, 2025 • Age: 18 hours

現在のステータス

高度 486.7 km
速度 7.63 km/s
衛星直下点 41.30°N, 40.9°W
打ち上げ日 Jan 21, 2025
運用期間 0.9 years
タイプ internet

技術仕様

分類 Payload
質量 730.00 kg
乾燥質量 700.00 kg
総質量 730.00 kg
長さ 0.30 m
直径 4.10 m
スパン 29.00 m
形状 Box + pan
製造者 SPXS
バスタイプ Starlink V2M
フェーズステータス In Orbit
所有者/国 SPXS/US

大規模コンステレーション

Loading constellations...